TimeEDT,TemperatureF,Dew PointF,Humidity,Sea Level PressureIn,VisibilityMPH,Wind Direction,Wind SpeedMPH,Gust SpeedMPH,PrecipitationIn,Events,Conditions,WindDirDegrees,DateUTC
12:28 AM,57.0,55.0,93,30.02,7.0,Calm,Calm,-,N/A,,Mostly Cloudy,0,2013-08-30 04:28:00
12:52 AM,57.9,55.9,93,30.02,10.0,Calm,Calm,-,N/A,,Overcast,0,2013-08-30 04:52:00
1:52 AM,59.0,57.0,93,30.01,10.0,Calm,Calm,-,N/A,,Mostly Cloudy,0,2013-08-30 05:52:00
2:06 AM,57.9,55.9,93,30.00,10.0,Calm,Calm,-,N/A,,Partly Cloudy,0,2013-08-30 06:06:00
2:25 AM,57.0,55.9,96,30.00,9.0,Calm,Calm,-,N/A,,Mostly Cloudy,0,2013-08-30 06:25:00
2:52 AM,57.0,55.9,96,30.00,8.0,Calm,Calm,-,N/A,,Mostly Cloudy,0,2013-08-30 06:52:00
3:52 AM,60.1,59.0,96,29.98,10.0,Calm,Calm,-,N/A,,Overcast,0,2013-08-30 07:52:00
4:52 AM,60.1,59.0,96,29.98,10.0,Calm,Calm,-,N/A,,Overcast,0,2013-08-30 08:52:00
5:52 AM,61.0,57.9,90,29.99,10.0,West,4.6,-,N/A,,Overcast,270,2013-08-30 09:52:00
6:48 AM,62.6,59.0,88,30.00,10.0,Calm,Calm,-,N/A,,Overcast,0,2013-08-30 10:48:00
6:52 AM,62.1,59.0,90,30.00,10.0,Calm,Calm,-,N/A,,Overcast,0,2013-08-30 10:52:00
7:52 AM,63.0,57.9,84,29.99,10.0,West,4.6,-,N/A,,Overcast,270,2013-08-30 11:52:00
8:52 AM,64.0,57.9,80,29.99,10.0,SW,4.6,-,N/A,,Overcast,230,2013-08-30 12:52:00
9:52 AM,66.0,60.1,81,29.98,10.0,West,9.2,-,N/A,,Overcast,280,2013-08-30 13:52:00
10:52 AM,66.9,60.1,79,29.97,10.0,West,8.1,-,N/A,,Overcast,270,2013-08-30 14:52:00
11:49 AM,69.8,62.6,78,29.95,10.0,SW,9.2,-,N/A,,Overcast,230,2013-08-30 15:49:00
11:52 AM,70.0,62.1,76,29.95,10.0,Variable,5.8,-,N/A,,Overcast,0,2013-08-30 15:52:00
12:52 PM,73.0,64.0,73,29.93,10.0,West,4.6,-,N/A,,Overcast,260,2013-08-30 16:52:00
1:52 PM,75.9,64.9,69,29.89,10.0,SW,10.4,-,N/A,,Mostly Cloudy,220,2013-08-30 17:52:00
2:52 PM,79.0,64.9,62,29.87,10.0,SW,8.1,-,N/A,,Mostly Cloudy,220,2013-08-30 18:52:00
3:52 PM,79.0,64.9,62,29.87,10.0,WSW,6.9,-,N/A,,Scattered Clouds,240,2013-08-30 19:52:00
4:04 PM,78.1,66.0,66,29.87,10.0,SW,6.9,-,N/A,,Mostly Cloudy,220,2013-08-30 20:04:00
4:13 PM,79.0,66.0,64,29.86,10.0,SW,6.9,-,N/A,,Scattered Clouds,220,2013-08-30 20:13:00
4:22 PM,79.0,66.9,66,29.86,10.0,SSW,6.9,-,N/A,,Mostly Cloudy,200,2013-08-30 20:22:00
4:36 PM,80.1,66.9,64,29.86,10.0,Variable,6.9,-,N/A,,Scattered Clouds,0,2013-08-30 20:36:00
4:52 PM,79.0,66.9,66,29.86,10.0,SSW,5.8,-,N/A,,Clear,210,2013-08-30 20:52:00
5:52 PM,77.0,66.9,71,29.86,10.0,SSW,6.9,-,N/A,,Clear,200,2013-08-30 21:52:00
6:52 PM,73.9,66.9,79,29.85,10.0,SSW,5.8,-,N/A,,Clear,200,2013-08-30 22:52:00
7:52 PM,71.1,66.9,87,29.85,10.0,South,4.6,-,N/A,,Clear,180,2013-08-30 23:52:00
8:52 PM,70.0,66.9,90,29.86,9.0,SSW,4.6,-,N/A,,Clear,200,2013-08-31 00:52:00
9:52 PM,70.0,66.9,90,29.86,9.0,SW,6.9,-,N/A,,Clear,230,2013-08-31 01:52:00
10:52 PM,70.0,66.9,90,29.86,8.0,SSW,4.6,-,N/A,,Clear,210,2013-08-31 02:52:00
11:52 PM,69.1,66.9,93,29.85,7.0,Variable,3.5,-,N/A,,Clear,0,2013-08-31 03:52:00